Wind_Speed
13 14 13 12 14 15 15 14 14 15 16 16 17 17 17 17 18 17 17 16 15 15 15 16 15 15 15 14 13 12 12 12 12 12 12 12 12 12 12 12 12 11 11 11
12 12 12 14 16 16 16 15 15 16 16 16 17 18 19 19 19 18 18 18 17 17 17 17 17 16 15 15 14 13 13 13 13 13 13 13 13 13 13 13 13 13 12 12
12 12 14 15 16 16 16 16 16 16 16 15 16 18 19 19 18 19 19 19 19 19 18 18 18 17 16 15 15 15 14 14 14 14 14 13 14 14 15 15 14 14 13 13
14 14 16 15 14 14 15 17 17 16 16 16 16 18 20 20 20 20 20 21 20 19 18 18 18 17 17 16 15 15 15 15 15 15 14 14 15 15 15 16 15 15 15 15
15 15 15 14 15 16 16 17 18 17 16 16 17 19 20 21 19 20 21 21 20 20 20 19 18 17 17 17 17 17 17 17 17 17 16 16 16 17 17 16 16 16 16 16
16 15 15 16 17 17 17 15 15 15 15 18 18 18 20 20 20 20 22 22 22 21 21 20 20 19 19 19 18 19 19 18 18 18 18 17 18 18 18 18 17 17 17 17
14 14 15 17 17 16 15 14 14 15 17 18 16 17 20 20 21 22 23 24 24 23 23 22 21 21 20 20 20 20 19 19 19 19 19 19 19 20 20 20 19 18 18 18
14 13 14 16 16 16 16 16 16 16 16 17 15 18 21 21 22 24 25 26 26 26 24 23 22 22 22 21 22 21 21 21 21 21 21 20 20 21 21 20 20 19 19 18
15 16 16 18 18 17 16 17 16 16 16 17 18 18 21 22 23 25 26 26 26 25 23 23 23 23 23 23 23 24 24 23 22 23 23 22 22 22 22 21 20 20 20 20
17 17 17 19 19 18 17 17 17 17 17 18 19 19 20 24 23 25 26 25 25 24 23 25 25 24 24 23 24 25 26 25 25 25 25 24 24 24 23 22 23 22 22 21
20 19 18 19 18 17 17 18 19 20 19 19 19 20 21 23 24 25 26 25 24 26 25 26 26 25 26 25 25 26 26 26 26 26 26 26 25 25 25 24 24 24 24 24
21 20 19 19 19 19 19 19 20 22 23 22 22 22 22 24 25 27 27 25 26 26 26 27 27 27 27 27 26 26 26 26 26 26 26 26 26 26 26 25 25 25 24 24
19 18 18 18 18 20 21 21 21 23 22 22 23 25 23 25 26 27 27 27 27 27 27 27 26 27 27 26 26 26 25 26 26 26 26 26 26 26 26 25 25 25 25 25
19 19 19 19 19 20 20 20 22 22 22 23 23 25 25 25 26 26 26 27 27 27 28 28 28 27 26 26 25 25 25 25 24 25 26 26 26 26 26 25 25 26 26 26
22 21 20 20 20 21 21 22 22 22 23 24 24 26 27 27 27 27 27 27 27 27 27 27 27 27 27 26 25 26 25 25 25 26 26 26 26 25 25 25 26 26 27 27
22 22 22 21 21 20 22 22 22 23 23 25 27 28 29 29 30 29 27 26 27 28 29 29 28 28 27 26 26 26 26 27 27 26 26 26 25 25 25 25 25 26 26 27
20 21 21 22 21 20 22 22 23 24 25 26 28 28 29 29 30 29 27 25 26 28 29 29 30 29 29 27 26 26 26 27 27 26 26 26 26 26 26 26 26 25 25 26
20 20 20 20 21 22 22 21 23 25 25 27 28 29 29 28 28 28 28 28 27 28 28 28 27 27 28 28 27 27 27 27 27 27 27 27 27 26 26 27 26 26 26 26
21 20 19 19 20 22 21 21 22 24 24 24 27 27 27 27 27 27 26 26 27 28 30 29 29 29 28 27 27 28 28 28 28 28 27 27 26 26 27 27 27 27 27 26
19 20 21 21 21 22 21 23 24 24 24 25 25 26 28 28 27 27 26 26 28 29 29 29 29 29 28 28 28 28 28 29 30 30 28 27 27 27 27 27 27 27 27 27
19 21 21 21 22 22 23 23 23 24 25 25 26 26 27 28 27 27 27 28 29 30 29 29 29 28 28 28 28 28 29 29 29 29 28 28 28 28 28 28 28 28 27 27
21 22 22 23 23 24 25 25 25 24 24 25 26 27 28 29 29 28 28 28 28 29 30 29 29 28 28 28 28 28 28 28 28 28 28 28 28 28 28 28 29 29 28 28
23 22 21 23 24 25 25 25 25 25 25 25 26 27 28 29 30 30 29 29 29 29 29 29 28 29 29 28 28 28 28 28 28 28 29 29 29 28 29 29 29 28 27 27
23 23 23 23 24 25 26 26 26 27 27 27 27 27 28 29 30 31 30 30 29 28 28 28 29 29 28 28 29 28 28 28 29 29 29 30 29 29 29 29 29 28 27 26
24 24 24 25 24 24 24 25 26 26 27 27 27 26 26 27 28 27 28 29 28 28 27 28 28 28 27 27 28 28 28 28 27 27 28 29 28 28 28 28 28 27 27 26
24 25 25 25 24 25 24 25 26 27 26 26 26 26 27 27 27 26 27 28 28 28 28 28 28 28 27 27 27 27 27 27 27 27 26 26 27 27 28 28 27 26 26 26
Wind_Direction
235 233 231 234 235 231 233 238 243 245 246 250 256 259 260 260 262 267 273 278 281 282 283 286 291 295 297 298 299 298 296 300 305 307 309 307 306 308 309 310 308 311 309 313
232 234 229 229 233 233 232 236 240 245 244 247 254 260 261 259 258 263 270 272 276 276 279 281 285 289 291 293 293 294 293 294 296 300 305 305 301 301 302 306 305 309 306 305
230 232 237 236 235 233 232 234 235 242 248 252 253 258 261 262 256 262 266 270 272 272 277 278 279 283 285 287 289 289 288 289 290 294 297 300 302 302 302 303 303 307 309 305
231 232 238 240 241 235 236 234 234 240 247 250 252 255 259 265 264 263 268 272 275 275 274 276 278 280 281 283 284 285 284 284 285 288 291 294 298 300 301 299 299 301 304 305
233 234 236 235 239 237 236 241 239 237 245 251 252 254 256 263 259 265 270 272 272 275 277 276 276 278 279 280 281 280 281 280 282 284 285 288 291 293 296 298 298 295 298 301
235 234 235 236 239 241 242 243 246 241 243 250 252 253 254 256 258 264 269 272 273 275 276 275 275 277 278 279 279 279 278 278 280 282 285 285 287 289 291 293 293 293 293 295
241 245 243 240 240 243 241 238 249 251 251 256 255 255 257 256 262 265 267 271 273 272 272 273 274 277 277 277 277 277 276 276 278 279 282 284 284 285 288 289 289 290 290 291
238 241 250 248 241 238 242 238 241 250 256 260 250 254 258 258 260 263 265 269 272 272 270 271 273 276 276 277 276 276 274 274 276 277 277 280 281 283 286 287 286 288 288 288
231 232 232 243 248 242 242 239 236 249 256 264 260 255 260 261 262 263 263 265 267 270 271 270 270 273 274 276 275 275 275 274 274 274 274 276 278 282 283 283 285 285 286 288
233 238 237 245 250 248 245 245 238 239 252 258 262 260 261 261 263 266 266 266 267 267 267 269 270 272 275 277 274 274 273 273 273 272 273 274 277 280 282 282 282 283 283 284
237 239 239 244 248 246 246 245 243 241 245 254 262 259 255 260 265 269 268 266 265 268 270 271 273 276 276 277 275 273 272 272 273 274 274 274 275 278 280 280 282 282 281 281
241 241 242 245 249 247 245 246 246 245 245 246 258 261 263 264 266 269 269 270 272 270 269 271 275 277 277 277 275 274 274 274 274 274 276 275 277 279 279 280 281 281 281 280
245 245 246 247 249 248 245 247 248 251 251 250 254 259 261 265 266 268 267 269 268 270 272 271 273 277 276 275 274 273 274 275 274 274 276 275 276 279 278 280 283 283 283 283
250 248 246 247 247 249 249 249 248 251 253 256 256 260 262 264 265 268 270 272 271 269 271 271 271 275 275 275 273 272 274 273 273 275 276 276 277 278 279 280 282 283 284 284
249 249 248 248 252 254 257 253 251 252 254 258 260 259 264 267 266 266 271 275 274 271 273 273 273 275 275 274 273 272 272 275 275 274 274 276 277 278 279 280 281 282 283 285
251 252 251 252 253 253 256 259 260 256 253 256 259 261 263 264 265 267 270 274 273 271 275 276 275 274 274 276 274 273 274 274 273 271 273 276 278 280 280 280 280 281 282 282
255 254 254 254 255 259 256 258 259 258 255 255 258 263 264 264 264 266 269 273 274 274 274 276 278 279 274 274 274 272 272 272 272 274 274 276 277 277 279 279 279 280 280 280
258 256 256 256 258 259 261 261 260 259 259 258 260 265 265 266 268 269 269 270 271 272 275 276 276 276 275 274 274 274 273 273 273 274 274 275 277 276 278 279 279 279 279 279
257 257 258 257 259 262 262 262 261 259 261 262 261 263 265 267 269 268 270 271 272 273 274 275 274 276 276 274 273 273 272 273 273 273 273 273 275 277 278 278 278 278 278 278
258 256 256 258 260 258 258 261 261 262 265 263 262 263 265 267 268 270 272 273 275 275 276 275 275 273 274 274 274 274 273 272 271 271 272 272 273 275 276 277 278 278 277 277
263 260 258 259 261 260 260 262 265 263 265 267 266 264 265 267 270 270 273 274 274 275 276 277 276 275 275 275 274 274 274 273 271 270 271 272 274 275 274 275 276 278 277 276
263 264 262 259 260 260 263 265 264 266 267 268 269 268 267 268 270 271 271 274 274 274 275 276 276 275 276 276 273 273 272 271 271 271 271 270 272 274 274 274 275 275 276 276
262 264 264 259 260 266 270 270 268 268 269 268 268 269 268 268 268 269 272 273 275 275 277 277 277 276 275 275 274 273 272 271 270 271 269 268 272 273 274 273 273 273 273 275
263 264 263 263 264 266 269 269 268 269 271 271 270 270 270 269 269 271 271 274 274 275 278 278 278 278 274 274 274 274 272 271 270 271 270 270 273 273 273 272 272 273 272 273
262 262 263 265 265 268 269 269 269 270 270 272 273 273 274 274 272 273 274 275 274 274 277 279 281 281 277 276 274 273 271 271 271 271 271 270 273 272 271 271 272 272 271 271
264 264 265 266 267 269 270 272 272 271 271 273 273 273 273 274 275 274 273 272 274 277 276 277 279 279 279 277 274 272 271 272 272 271 269 269 271 272 270 270 270 269 270 270
Height
5861 5864 5866 5869 5872 5874 5877 5879 5881 5883 5883 5883 5883 5883 5883 5883 5881 5881 5881 5881 5881 5880 5879 5878 5878 5878 5877 5877 5876 5876 5875 5875 5875 5874 5874 5873 5873 5872 5871 5870 5869 5868 5868 5867
5859 5861 5864 5867 5869 5871 5873 5876 5878 5879 5880 5880 5880 5880 5880 5879 5879 5879 5878 5877 5877 5877 5876 5875 5875 5875 5875 5874 5874 5874 5874 5873 5873 5872 5872 5871 5870 5870 5869 5869 5868 5867 5866 5866
5857 5860 5862 5863 5865 5867 5870 5872 5874 5875 5876 5876 5877 5877 5875 5875 5875 5876 5875 5873 5873 5873 5873 5873 5872 5872 5872 5872 5871 5871 5871 5871 5871 5870 5870 5869 5868 5867 5867 5866 5866 5865 5864 5864
5855 5857 5859 5860 5862 5864 5867 5868 5869 5871 5872 5873 5874 5873 5872 5871 5872 5872 5871 5870 5870 5868 5868 5869 5869 5869 5869 5869 5868 5868 5868 5868 5868 5868 5867 5867 5866 5865 5865 5863 5863 5863 5863 5862
5852 5854 5855 5857 5859 5860 5862 5864 5865 5866 5867 5869 5870 5869 5869 5868 5867 5867 5867 5866 5866 5866 5865 5865 5865 5865 5866 5865 5865 5865 5865 5865 5865 5865 5864 5864 5863 5863 5862 5861 5861 5861 5860 5860
5848 5850 5852 5853 5855 5856 5857 5859 5860 5862 5863 5864 5865 5865 5864 5863 5861 5863 5863 5862 5862 5862 5862 5862 5862 5862 5862 5862 5862 5862 5862 5862 5861 5861 5861 5861 5860 5860 5859 5859 5858 5858 5857 5857
5844 5846 5847 5848 5850 5852 5853 5856 5857 5858 5859 5860 5861 5861 5860 5859 5858 5858 5858 5858 5858 5858 5858 5857 5857 5857 5858 5858 5857 5857 5857 5858 5857 5857 5857 5857 5857 5856 5856 5855 5855 5855 5854 5853
5842 5844 5844 5845 5846 5848 5850 5852 5854 5855 5855 5856 5856 5856 5855 5855 5854 5854 5854 5854 5853 5852 5852 5853 5852 5853 5853 5853 5853 5853 5852 5853 5853 5853 5853 5853 5853 5852 5852 5852 5851 5851 5851 5850
5837 5839 5840 5841 5841 5843 5845 5847 5850 5851 5851 5852 5852 5852 5851 5850 5849 5850 5849 5848 5848 5847 5847 5847 5846 5847 5847 5847 5847 5847 5847 5847 5848 5848 5848 5848 5848 5848 5848 5847 5847 5847 5847 5846
5832 5834 5836 5836 5837 5839 5841 5842 5844 5846 5846 5847 5848 5847 5846 5844 5844 5844 5842 5842 5842 5842 5841 5841 5841 5841 5841 5841 5841 5841 5841 5842 5842 5843 5843 5843 5843 5843 5842 5842 5842 5842 5842 5842
5827 5828 5831 5832 5832 5834 5836 5837 5838 5840 5841 5842 5842 5844 5839 5839 5839 5838 5836 5836 5836 5835 5834 5835 5835 5835 5835 5835 5835 5835 5835 5836 5836 5837 5837 5837 5837 5837 5837 5837 5836 5836 5836 5836
5821 5822 5824 5827 5828 5828 5830 5831 5832 5834 5835 5836 5836 5837 5833 5833 5833 5833 5831 5830 5829 5829 5830 5829 5829 5828 5827 5828 5828 5828 5828 5829 5830 5830 5830 5831 5831 5831 5831 5831 5831 5830 5830 5830
5815 5817 5819 5821 5824 5823 5823 5824 5826 5827 5828 5829 5830 5831 5827 5827 5826 5825 5825 5825 5824 5823 5823 5822 5822 5822 5821 5821 5821 5821 5821 5822 5822 5823 5823 5824 5824 5824 5824 5824 5824 5823 5823 5823
5810 5812 5814 5815 5815 5815 5816 5818 5819 5821 5822 5823 5823 5822 5821 5820 5820 5819 5819 5818 5817 5816 5815 5815 5815 5816 5815 5815 5815 5814 5815 5815 5816 5816 5816 5817 5817 5817 5817 5817 5817 5816 5816 5816
5805 5806 5808 5809 5810 5810 5811 5812 5813 5813 5815 5817 5817 5815 5814 5812 5813 5812 5812 5812 5810 5809 5809 5808 5808 5808 5808 5808 5809 5808 5808 5809 5809 5809 5809 5809 5810 5810 5810 5810 5810 5809 5809 5809
5799 5800 5802 5803 5804 5804 5805 5806 5807 5808 5808 5809 5809 5808 5807 5806 5805 5806 5805 5805 5805 5804 5803 5801 5800 5801 5801 5801 5801 5802 5802 5802 5802 5802 5802 5802 5802 5803 5803 5803 5803 5802 5802 5802
5792 5794 5796 5797 5797 5797 5798 5799 5800 5800 5801 5801 5801 5801 5799 5799 5799 5799 5799 5798 5797 5797 5797 5796 5795 5793 5794 5794 5794 5795 5795 5795 5795 5795 5795 5795 5795 5796 5796 5796 5795 5795 5794 5794
5787 5788 5790 5791 5792 5792 5794 5793 5794 5793 5793 5794 5793 5792 5792 5792 5792 5792 5792 5792 5791 5790 5789 5789 5788 5787 5787 5787 5787 5788 5788 5788 5788 5788 5788 5788 5788 5788 5788 5788 5788 5787 5787 5786
5782 5783 5784 5785 5785 5786 5787 5787 5786 5786 5786 5786 5786 5785 5785 5785 5785 5785 5785 5784 5783 5783 5782 5781 5781 5780 5780 5780 5780 5780 5780 5781 5781 5781 5781 5781 5781 5781 5781 5781 5780 5779 5779 5779
5778 5778 5779 5779 5779 5780 5781 5780 5779 5780 5779 5779 5779 5779 5779 5778 5779 5778 5777 5777 5776 5775 5774 5774 5772 5772 5773 5773 5773 5772 5772 5772 5773 5773 5773 5773 5773 5773 5773 5773 5772 5771 5771 5771
5772 5772 5773 5773 5773 5772 5773 5773 5774 5775 5773 5772 5772 5772 5772 5771 5772 5771 5770 5769 5769 5768 5767 5766 5765 5765 5765 5765 5765 5764 5764 5764 5764 5765 5765 5765 5765 5765 5765 5764 5764 5764 5763 5762
5767 5766 5766 5767 5766 5768 5766 5766 5767 5766 5766 5765 5765 5765 5765 5764 5764 5763 5763 5762 5761 5760 5759 5758 5757 5757 5757 5756 5756 5756 5756 5756 5756 5757 5757 5756 5756 5756 5756 5756 5755 5755 5755 5754
5761 5761 5761 5761 5762 5761 5760 5760 5759 5759 5758 5758 5758 5758 5757 5757 5756 5755 5754 5754 5753 5753 5752 5751 5749 5749 5748 5748 5748 5748 5748 5748 5748 5748 5748 5748 5748 5748 5748 5747 5747 5746 5746 5746
5754 5754 5754 5754 5754 5754 5753 5753 5752 5752 5751 5751 5750 5750 5750 5749 5748 5747 5746 5746 5745 5745 5744 5743 5742 5741 5740 5740 5740 5740 5740 5740 5739 5739 5739 5739 5739 5739 5739 5738 5738 5738 5739 5738
5748 5747 5747 5747 5748 5746 5746 5745 5745 5744 5744 5743 5743 5742 5741 5740 5740 5739 5739 5738 5737 5737 5736 5735 5734 5733 5732 5732 5732 5732 5732 5731 5731 5730 5730 5730 5731 5731 5730 5730 5731 5731 5731 5731
5741 5741 5740 5740 5740 5740 5739 5738 5737 5737 5736 5736 5735 5734 5734 5733 5733 5732 5731 5730 5730 5729 5728 5727 5727 5726 5725 5724 5724 5724 5724 5723 5723 5722 5722 5723 5723 5723 5722 5723 5723 5723 5723 5723